Location: Clinton NY
(43.0598°N, 75.3602°W)
Time: 17:11:13
(UTC-04:00)

Amateur Radio Satellites - All Passes

Search period start: 04 May 2016 16:41
Search period end: 05 May 2016 16:41
Location: Clinton NY, 43.0598°N, 75.3602°W

Satellite Date Start Highest point End Downlink Frequencies (MHz)
Time Altitude Azimuth
Cubesat XI-IV 04 May 16:47:50 16:49:47 12° 56° (NE) 16:51:45 437.490
SO-50 04 May 16:50:36 16:54:33 27° 247° (WSW) 16:58:21 436.795
BRITE-PL 04 May 16:58:03 17:00:14 13° 57° (ENE) 17:02:29 437.365/2234.400
AO-7 04 May 17:00:22 17:07:44 35° 263° (W) 17:15:11 29.400- 29.500
KKS-1 04 May 17:05:38 17:10:05 68° 287° (WNW) 17:14:30 437.445
BEESAT 04 May 17:11:30 17:12:55 11° 302° (WNW) 17:14:20 436.000
STARS 04 May 17:17:04 17:21:30 84° 102° (ESE) 17:25:54 437.465
MOZHAYETS 4 04 May 17:22:31 17:27:04 69° 286° (WNW) 17:31:36
HORYU 2 04 May 17:32:08 17:36:14 35° 262° (W) 17:40:20 437.375
Cosmos 2491 04 May 17:32:47 17:41:22 51° 75° (ENE) 17:49:49 435.465 / 435.565
CUBESAT XI-V 04 May 17:36:30 17:39:59 20° 92° (E) 17:43:27 437.345
CUTE-I 04 May 17:39:24 17:44:06 33° 66° (ENE) 17:48:49 437.470
YUBILEINY 04 May 17:46:49 17:53:25 25° 80° (E) 17:59:59 435.215
BEESAT 3 04 May 17:47:58 17:51:17 27° 115° (ESE) 17:54:39 437.485
GOMX 1 04 May 17:57:43 18:01:44 23° 64° (ENE) 18:05:55 467.674
BEESAT 2 04 May 17:59:24 18:02:26 21° 113° (ESE) 18:05:29 435.950
LilacSat-2 04 May 18:06:01 18:09:42 42° 72° (ENE) 18:13:23 437.200
NOAA 18 04 May 18:07:48 18:13:19 79° 73° (ENE) 18:18:50 137.9125
NOAA 15 04 May 18:14:39 18:19:56 83° 256° (WSW) 18:25:16 137.62
PCSat 04 May 18:16:32 18:18:30 12° 328° (NNW) 18:20:29 145.827
M-CUBED/EXP-1 PRIME 04 May 18:22:55 18:27:19 40° 65° (ENE) 18:31:38 437.505
Cubesat XI-IV 04 May 18:23:40 18:29:00 80° 74° (ENE) 18:34:21 437.490
BRITE-PL 04 May 18:32:52 18:37:46 88° 77° (ENE) 18:43:07 437.365/2234.400
AUBIESAT-1 04 May 18:39:45 18:44:13 49° 67° (ENE) 18:48:35 437.475
STARS 04 May 18:56:02 18:57:11 11° 301° (WNW) 18:58:19 437.465
CUBESAT XI-V 04 May 19:13:06 19:17:34 44° 289° (WNW) 19:22:01 437.345
CANX-2 04 May 19:14:09 19:17:04 18° 65° (ENE) 19:20:00 2200.000
HO-68 04 May 19:15:22 19:21:45 37° 62° (ENE) 19:28:10 435.675
CUTE-I 04 May 19:19:19 19:24:06 33° 264° (W) 19:28:54 437.470
DOVE 4 04 May 19:20:07 19:25:13 67° 74° (ENE) 19:30:30 437.250
BEESAT 3 04 May 19:25:25 19:28:55 30° 312° (NW) 19:32:27 437.485
Cosmos 2491 04 May 19:30:07 19:37:54 37° 275° (W) 19:45:38 435.465 / 435.565
GOMX 1 04 May 19:34:31 19:39:25 49° 262° (W) 19:44:39 467.674
BEESAT 2 04 May 19:36:21 19:40:04 37° 310° (NW) 19:43:49 435.950
YUBILEINY 04 May 19:40:37 19:49:20 73° 280° (W) 19:58:04 435.215
STRAND 1 04 May 19:41:45 19:46:21 33° 97° (E) 19:50:55 437.568
LilacSat-2 04 May 19:42:04 19:44:13 14° 269° (W) 19:46:23 437.200
CUTE 1.7 + AOD 2 04 May 19:45:31 19:49:18 34° 70° (ENE) 19:53:07 437.475
AIST 2 04 May 19:47:30 19:50:40 22° 113° (ESE) 19:53:51 435.215
CINEMA 3 04 May 19:49:05 19:53:50 44° 71° (ENE) 19:58:34 145.822/145.860
NOAA 18 04 May 19:51:42 19:54:34 14° 270° (W) 19:57:27 137.9125
M-CUBED/EXP-1 PRIME 04 May 19:58:06 20:01:55 24° 261° (W) 20:05:41 437.505
Cosmos 2504 04 May 19:58:56 20:05:34 41° 88° (E) 20:12:09 435.465 / 435.565
Cubesat XI-IV 04 May 20:07:11 20:09:41 13° 271° (W) 20:12:11 437.490
COMPASS 1 04 May 20:08:42 20:12:23 32° 70° (ENE) 20:16:04 437.405
SEEDS 04 May 20:08:50 20:12:48 44° 72° (ENE) 20:16:46 437.485
UWE-3 04 May 20:12:18 20:15:26 18° 65° (ENE) 20:18:32 435.000/436.395/437.385
AUBIESAT-1 04 May 20:15:33 20:18:52 19° 262° (W) 20:22:09 437.475
BRITE-PL 04 May 20:15:43 20:17:06 11° 276° (W) 20:18:31 437.365/2234.400
CUBEBUG 2 04 May 20:22:59 20:27:09 32° 69° (ENE) 20:31:16 437.445
AO-85 04 May 20:31:48 20:36:12 32° 45° (NE) 20:40:15 145.980
RS-15 04 May 20:33:01 20:42:29 33° 104° (ESE) 20:52:20 29.354- 29.394
AAUSAT CUBESAT 2 04 May 20:37:05 20:41:04 53° 74° (ENE) 20:45:06 437.432
ZACube-1 04 May 20:37:52 20:41:19 22° 66° (ENE) 20:44:44 437.345
CANX-2 04 May 20:48:39 20:52:38 41° 262° (W) 20:56:38 2200.000
DOVE 4 04 May 21:00:12 21:03:23 16° 272° (W) 21:06:38 437.250
HO-68 04 May 21:02:30 21:09:19 46° 261° (W) 21:16:11 435.675
Oscar 11 04 May 21:14:53 21:19:07 58° 74° (ENE) 21:23:22 145.826/435.025
PRISM 04 May 21:17:37 21:21:47 63° 102° (ESE) 21:25:55 437.425
STRAND 1 04 May 21:20:58 21:25:28 32° 293° (WNW) 21:29:56 437.568
CUTE 1.7 + AOD 2 04 May 21:22:01 21:25:14 21° 267° (W) 21:28:27 437.475
HUMSAT D 04 May 21:23:37 21:26:19 17° 65° (ENE) 21:29:00 437.325/437.525
AIST 2 04 May 21:25:02 21:28:55 39° 310° (NW) 21:32:51 435.215
CINEMA 3 04 May 21:27:09 21:31:06 23° 267° (W) 21:35:05 145.822/145.860
FUNcube-1 04 May 21:29:20 21:33:49 70° 75° (ENE) 21:38:14 145.935
DELFI C3 04 May 21:33:30 21:37:14 43° 72° (ENE) 21:40:59 145.870
YUBILEINY 04 May 21:43:05 21:47:53 16° 303° (WNW) 21:52:44 435.215
COMPASS 1 04 May 21:44:48 21:48:00 21° 266° (W) 21:51:13 437.405
SEEDS 04 May 21:46:10 21:48:44 16° 268° (W) 21:51:18 437.485
UWE-3 04 May 21:47:03 21:51:33 50° 261° (W) 21:55:59 435.000/436.395/437.385
Cosmos 2504 04 May 21:52:24 21:58:57 36° 288° (WNW) 22:05:30 435.465 / 435.565
CUBEBUG 2 04 May 21:59:42 22:03:45 28° 265° (W) 22:07:45 437.445
ESTCUBE 1 04 May 22:05:33 22:06:38 11° 59° (ENE) 22:07:43 437.505/2401.250
AO-85 04 May 22:12:26 22:16:40 33° 246° (WSW) 22:20:33 145.980
ZACube-1 04 May 22:13:10 22:17:23 38° 262° (W) 22:21:33 437.345
AAUSAT CUBESAT 2 04 May 22:14:59 22:16:54 13° 270° (W) 22:18:49 437.432
UNISAT 6 04 May 22:24:33 22:27:07 15° 91° (E) 22:29:38 437.425
50 SAT 04 May 22:26:36 22:27:27 11° 63° (ENE) 22:28:18 437.505
DX 1 04 May 22:30:28 22:32:23 13° 60° (ENE) 22:34:19 434.975-435.025
UKube-1 04 May 22:33:38 22:34:51 11° 59° (ENE) 22:36:05 .
VELOX 1 04 May 22:39:57 22:42:54 18° 63° (ENE) 22:45:54 145.980
TIGRISAT 04 May 22:40:42 22:44:02 21° 94° (E) 22:47:19 435.000
RS-15 04 May 22:42:28 22:53:49 75° 307° (NW) 23:05:53 29.354- 29.394
Oscar 11 04 May 22:53:37 22:55:37 13° 270° (W) 22:57:38 145.826/435.025
PRISM 04 May 22:54:40 22:56:35 13° 298° (WNW) 22:58:28 437.425
HUMSAT D 04 May 22:57:34 23:01:37 45° 261° (W) 23:05:39 437.325/437.525
SPROUT 04 May 22:59:55 23:00:38 10° 60° (ENE) 23:01:21 437.525
ANTELSAT 04 May 23:05:32 23:09:39 42° 98° (E) 23:13:41 437.575/2403.000
FUNcube-1 04 May 23:08:55 23:10:29 12° 271° (W) 23:12:03 145.935
DELFI C3 04 May 23:10:07 23:12:21 15° 269° (W) 23:14:35 145.870
AISAT 04 May 23:11:00 23:15:06 37° 69° (ENE) 23:19:13 437.250
NANOSAT C BR1 04 May 23:18:31 23:19:04 10° 89° (E) 23:19:38 145.865
AIST 1 04 May 23:23:58 23:25:52 13° 83° (E) 23:27:46
O/OREOS (USA 219) 04 May 23:29:28 23:32:56 21° 54° (NE) 23:36:22 437.305
GONETS M04 04 May 23:31:07 23:38:08 27° 81° (E) 23:45:06
PCSat 04 May 23:32:22 23:37:00 28° 47° (NE) 23:41:36 145.827
ESTCUBE 1 04 May 23:38:16 23:42:44 87° 254° (WSW) 23:47:15 437.505/2401.250
CUBEBUG 1 04 May 23:41:13 23:45:34 72° 76° (ENE) 23:50:00 437.445
50 SAT 04 May 23:57:10 00:00:45 57° 259° (W) 00:04:22 437.505
UNISAT 6 04 May 23:59:58 00:04:08 48° 288° (WNW) 00:08:14 437.425
Cosmos 2499 05 May 00:01:04 00:05:28 18° 79° (E) 00:09:53 435.465 / 435.565
DX 1 05 May 00:03:39 00:08:00 71° 258° (WSW) 00:12:24 434.975-435.025
UKube-1 05 May 00:05:56 00:10:16 81° 258° (WSW) 00:14:37 .
DUCHIFAT 1 05 May 00:07:01 00:10:53 34° 97° (E) 00:14:43 145.980
QB50P2 05 May 00:10:26 00:14:30 44° 99° (E) 00:18:32 145.880/145.840
POLYITAN 1 05 May 00:12:37 00:16:42 45° 99° (E) 00:20:44 437.675
POPSAT HIP 1 05 May 00:14:35 00:18:42 46° 99° (E) 00:22:44 437.405
VELOX 1 05 May 00:14:42 00:19:00 49° 260° (W) 00:23:21 145.980
TIGRISAT 05 May 00:16:55 00:20:49 34° 291° (WNW) 00:24:39 435.000
QB50P1 05 May 00:17:34 00:21:43 50° 100° (E) 00:25:48 145.935-145.965
SPROUT 05 May 00:31:35 00:35:55 85° 257° (WSW) 00:40:16 437.525
BUGSAT 1 05 May 00:39:25 00:43:21 38° 98° (E) 00:47:12 437.445
ANTELSAT 05 May 00:43:03 00:46:03 19° 296° (WNW) 00:49:01 437.575/2403.000
AISAT 05 May 00:48:15 00:51:41 22° 266° (W) 00:55:09 437.250
DANDE 05 May 00:48:25 00:51:16 13° 62° (ENE) 00:54:17 436.750
NANOSAT C BR1 05 May 00:51:04 00:55:18 71° 286° (WNW) 00:59:28 145.865
TISAT 1 05 May 00:57:14 01:01:24 55° 73° (ENE) 01:05:35 437.305
AIST 1 05 May 00:58:39 01:02:54 56° 281° (W) 01:07:13
RS-15 05 May 00:58:42 01:08:44 32° 337° (NNW) 01:19:15 29.354- 29.394
BEESAT 05 May 01:03:11 01:05:47 15° 60° (ENE) 01:08:23 436.000
Oscar 19 05 May 01:07:52 01:09:47 12° 88° (E) 01:11:42 437.125/150
O/OREOS (USA 219) 05 May 01:08:15 01:12:33 44° 253° (WSW) 01:16:48 437.305
PCSat 05 May 01:15:25 01:20:40 51° 246° (WSW) 01:25:53 145.827
CUBEBUG 1 05 May 01:21:09 01:22:22 11° 271° (W) 01:23:35 437.445
CUSAT 1 05 May 01:25:06 01:32:07 44° 73° (ENE) 01:39:44 437.405
GONETS M04 05 May 01:25:22 01:34:11 68° 281° (W) 01:43:00
JAS-2 05 May 01:33:32 01:41:04 48° 97° (E) 01:48:29 435.910
DUCHIFAT 1 05 May 01:43:10 01:46:23 21° 294° (WNW) 01:49:34 145.980
QB50P2 05 May 01:47:09 01:49:58 18° 296° (WNW) 01:52:47 145.880/145.840
POLYITAN 1 05 May 01:49:23 01:52:10 17° 296° (WNW) 01:54:56 437.675
Cosmos 2499 05 May 01:50:33 01:57:37 77° 279° (W) 02:04:47 435.465 / 435.565
POPSAT HIP 1 05 May 01:51:22 01:54:07 17° 296° (WNW) 01:56:51 437.405
QB50P1 05 May 01:54:32 01:57:05 16° 297° (WNW) 01:59:37 145.935-145.965
ITUPSAT 1 05 May 01:57:25 02:01:57 46° 70° (ENE) 02:06:30 437.325
BEESAT 3 05 May 02:04:08 02:07:25 24° 46° (NE) 02:10:42 437.485
SWISSCUBE 05 May 02:05:24 02:10:05 62° 72° (ENE) 02:14:46 437.505
BUGSAT 1 05 May 02:15:26 02:18:28 20° 295° (WNW) 02:21:27 437.445
BEESAT 2 05 May 02:16:05 02:19:10 21° 44° (NE) 02:22:13 435.950
DANDE 05 May 02:28:18 02:35:01 63° 78° (ENE) 02:43:05 436.750
KKS-1 05 May 02:30:21 02:32:39 14° 61° (ENE) 02:34:58 437.445
ITAMSAT 1 05 May 02:31:26 02:33:25 12° 89° (E) 02:35:24 435.822/435.867
TISAT 1 05 May 02:35:15 02:37:23 14° 269° (W) 02:39:32 437.305
BEESAT 05 May 02:38:16 02:43:00 69° 258° (WSW) 02:47:46 436.000
Oscar 19 05 May 02:44:31 02:49:46 85° 283° (WNW) 02:54:57 437.125/150
MOZHAYETS 4 05 May 02:50:30 02:52:55 14° 62° (ENE) 02:55:20
Gurwin Techsat 1B 05 May 02:57:56 03:03:10 54° 100° (E) 03:08:21 435.225
CUSAT 1 05 May 03:07:18 03:14:13 43° 269° (W) 03:21:42 437.405
AO-7 05 May 03:09:28 03:13:39 14° 87° (E) 03:17:50 29.400- 29.500
RS-15 05 May 03:16:36 03:26:22 27° 12° (NNE) 03:36:21 29.354- 29.394
JAS-2 05 May 03:18:44 03:25:53 42° 295° (WNW) 03:33:03 435.910
GONETS M04 05 May 03:28:26 03:32:56 15° 304° (NW) 03:37:27
ITUPSAT 1 05 May 03:36:33 03:40:01 20° 267° (W) 03:43:29 437.325
BEESAT 3 05 May 03:41:35 03:45:12 35° 244° (WSW) 03:48:47 437.485
SWISSCUBE 05 May 03:45:40 03:48:17 15° 269° (W) 03:50:54 437.505
Cosmos 2499 05 May 03:48:55 03:52:07 13° 301° (WNW) 03:55:22 435.465 / 435.565
BEESAT 2 05 May 03:53:24 03:57:14 45° 242° (WSW) 04:01:01 435.950
YUBILEINY 05 May 03:55:54 03:59:14 12° 53° (NE) 04:02:34 435.215
KKS-1 05 May 04:04:13 04:08:41 67° 258° (WSW) 04:13:10 437.445
AIST 2 05 May 04:07:19 04:10:38 22° 44° (NE) 04:13:56 435.215
ITAMSAT 1 05 May 04:08:19 04:13:31 84° 286° (WNW) 04:18:43 435.822/435.867
DANDE 05 May 04:11:53 04:17:36 28° 271° (W) 04:24:07 436.750
STARS 05 May 04:14:13 04:18:39 83° 76° (ENE) 04:23:07 437.465
MOZHAYETS 4 05 May 04:25:01 04:29:33 66° 259° (WSW) 04:34:06
Oscar 19 05 May 04:26:11 04:28:16 12° 303° (WNW) 04:30:20 437.125/150
Gurwin Techsat 1B 05 May 04:38:44 04:42:43 22° 298° (WNW) 04:46:40 435.225
CUBESAT XI-V 05 May 04:40:54 04:44:25 22° 65° (ENE) 04:47:59 437.345
AO-7 05 May 04:59:22 05:07:45 75° 107° (ESE) 05:16:06 29.400- 29.500
HORYU 2 05 May 05:21:46 05:25:54 38° 98° (E) 05:30:01 437.375
RS-15 05 May 05:30:39 05:42:36 53° 44° (NE) 05:54:34 29.354- 29.394
AIST 2 05 May 05:45:22 05:49:18 43° 242° (WSW) 05:53:14 435.215
YUBILEINY 05 May 05:49:34 05:58:12 61° 77° (ENE) 06:06:46 435.215
Cosmos 2504 05 May 05:49:56 05:54:20 16° 61° (ENE) 05:58:53 435.465 / 435.565
ITAMSAT 1 05 May 05:50:11 05:52:11 12° 303° (WNW) 05:54:10 435.822/435.867
CUTE-I 05 May 05:57:37 05:59:10 11° 88° (E) 06:00:43 437.470
CUBESAT XI-V 05 May 06:17:15 06:21:33 40° 262° (W) 06:25:56 437.345
NOAA 15 05 May 06:29:05 06:33:56 34° 97° (E) 06:38:44 137.62
NOAA 18 05 May 06:29:19 06:34:05 30° 96° (E) 06:38:49 137.9125
Cosmos 2491 05 May 06:34:43 06:43:16 57° 90° (E) 06:51:50 435.465 / 435.565
BRITE-PL 05 May 06:36:52 06:41:55 32° 94° (E) 06:46:50 437.365/2234.400
Cubesat XI-IV 05 May 06:40:21 06:44:58 29° 95° (E) 06:49:33 437.490
AO-7 05 May 06:53:06 06:59:47 28° 306° (NW) 07:06:28 29.400- 29.500
STRAND 1 05 May 06:58:24 07:03:20 52° 71° (ENE) 07:08:16 437.568
HORYU 2 05 May 06:58:53 07:02:14 21° 295° (WNW) 07:05:34 437.375
SO-50 05 May 07:04:14 07:09:08 78° 122° (ESE) 07:14:04 436.795
ISS 05 May 07:10:12 07:13:27 79° 145° (SE) 07:16:43 145.825
LilacSat-2 05 May 07:12:34 07:16:19 57° 100° (E) 07:20:02 437.200
DOVE 4 05 May 07:19:41 07:23:06 18° 89° (E) 07:26:23 437.250
CUTE-I 05 May 07:34:35 07:39:56 89° 104° (ESE) 07:45:16 437.470
GOMX 1 05 May 07:35:24 07:40:43 52° 98° (E) 07:45:44 467.674
M-CUBED/EXP-1 PRIME 05 May 07:37:07 07:40:01 20° 98° (E) 07:42:44 437.505
Cosmos 2504 05 May 07:41:14 07:48:54 80° 81° (E) 07:57:09 435.465 / 435.565
RS-15 05 May 07:43:31 07:55:19 56° 248° (WSW) 08:07:06 29.354- 29.394
YUBILEINY 05 May 07:47:12 07:54:25 30° 277° (W) 08:01:37 435.215
AUBIESAT-1 05 May 07:53:14 07:56:25 25° 100° (E) 07:59:24 437.475
PRISM 05 May 08:07:49 08:11:46 50° 72° (ENE) 08:15:45 437.425
NOAA 15 05 May 08:08:56 08:13:38 33° 294° (WNW) 08:18:19 137.62
NOAA 18 05 May 08:09:47 08:14:48 38° 293° (WNW) 08:19:48 137.9125
BRITE-PL 05 May 08:15:08 08:20:24 40° 291° (WNW) 08:25:33 437.365/2234.400
Cubesat XI-IV 05 May 08:20:13 08:25:06 38° 292° (WNW) 08:29:58 437.490
HO-68 05 May 08:28:58 08:35:20 34° 96° (E) 08:41:41 435.675
CANX-2 05 May 08:32:41 08:36:25 30° 96° (E) 08:40:08 2200.000
Cosmos 2491 05 May 08:32:42 08:40:31 34° 291° (WNW) 08:48:22 435.465 / 435.565
STRAND 1 05 May 08:39:09 08:42:48 20° 268° (W) 08:46:28 437.568
PHONESAT 2.4 05 May 08:39:16 08:40:46 13° 151° (SSE) 08:42:16 2401.200-2431.200
SO-50 05 May 08:46:37 08:50:12 20° 321° (NW) 08:53:47 436.795
ISS 05 May 08:47:26 08:50:12 24° 344° (NNW) 08:52:57 145.825
LilacSat-2 05 May 08:48:50 08:50:09 12° 297° (WNW) 08:51:28 437.200
DOVE 4 05 May 08:56:12 09:01:11 54° 288° (WNW) 09:05:53 437.250
CUTE 1.7 + AOD 2 05 May 09:04:39 09:08:51 60° 101° (E) 09:13:01 437.475
M-CUBED/EXP-1 PRIME 05 May 09:11:15 09:14:40 29° 297° (WNW) 09:17:50 437.505
GOMX 1 05 May 09:14:12 09:18:21 23° 297° (WNW) 09:22:23 467.674
CUTE-I 05 May 09:16:37 09:19:13 14° 303° (WNW) 09:21:48 437.470
FUNcube-1 05 May 09:18:52 09:20:12 11° 89° (E) 09:21:32 145.935
CINEMA 3 05 May 09:20:04 09:24:43 89° 114° (ESE) 09:29:05 145.822/145.860
UNISAT 6 05 May 09:24:12 09:27:17 18° 64° (ENE) 09:30:20 437.425
COMPASS 1 05 May 09:25:29 09:29:34 53° 100° (E) 09:33:39 437.405
SEEDS 05 May 09:27:02 09:31:15 79° 104° (ESE) 09:35:27 437.485
AUBIESAT-1 05 May 09:27:45 09:30:52 23° 299° (WNW) 09:33:46 437.475
UWE-3 05 May 09:36:11 09:39:53 29° 95° (E) 09:43:30 435.000/436.395/437.385
Cosmos 2504 05 May 09:36:14 09:41:27 20° 279° (W) 09:46:53 435.465 / 435.565
TIGRISAT 05 May 09:40:03 09:43:45 24° 67° (ENE) 09:47:23 435.000
GONETS M04 05 May 09:40:19 09:44:25 14° 55° (NE) 09:48:29
PRISM 05 May 09:45:17 09:47:23 14° 269° (W) 09:49:30 437.425
CUBEBUG 2 05 May 09:49:06 09:53:21 58° 100° (E) 09:57:28 437.445
AAUSAT CUBESAT 2 05 May 09:53:35 09:57:46 90° 121° (ESE) 10:01:55 437.432
ZACube-1 05 May 10:00:34 10:04:26 35° 97° (E) 10:08:14 437.345
RS-15 05 May 10:02:29 10:04:51 11° 269° (W) 10:07:12 29.354- 29.394
ANTELSAT 05 May 10:04:48 10:09:10 43° 72° (ENE) 10:13:29 437.575/2403.000
CANX-2 05 May 10:08:43 10:12:09 25° 292° (WNW) 10:15:36 2200.000
NANOSAT C BR1 05 May 10:12:33 10:12:51 10° 60° (ENE) 10:13:09 145.865
PHONESAT 2.4 05 May 10:14:09 10:17:06 38° 167° (SSE) 10:20:03 2401.200-2431.200
HO-68 05 May 10:16:24 10:23:14 49° 294° (WNW) 10:30:02 435.675
ISS 05 May 10:25:05 10:27:27 18° 4° (N) 10:29:49 145.825
Oscar 11 05 May 10:37:00 10:41:19 77° 285° (WNW) 10:45:37 145.826/435.025
HUMSAT D 05 May 10:40:21 10:43:43 24° 95° (E) 10:47:04 437.325/437.525
CUTE 1.7 + AOD 2 05 May 10:42:06 10:44:12 14° 297° (WNW) 10:46:18 437.475
DELFI C3 05 May 10:44:45 10:48:44 65° 101° (E) 10:52:42 145.870
FUNcube-1 05 May 10:52:45 10:56:53 61° 286° (WNW) 11:00:57 145.935
UNISAT 6 05 May 10:59:06 11:03:37 51° 260° (W) 11:08:05 437.425
DUCHIFAT 1 05 May 10:59:46 11:03:29 30° 69° (ENE) 11:07:13 145.980
CINEMA 3 05 May 11:00:04 11:01:02 11° 302° (WNW) 11:01:59 145.822/145.860
COMPASS 1 05 May 11:02:24 11:04:42 15° 296° (WNW) 11:07:01 437.405
QB50P2 05 May 11:03:47 11:07:45 38° 70° (ENE) 11:11:43 145.880/145.840
AIST 1 05 May 11:04:41 11:08:48 37° 76° (ENE) 11:12:53
SEEDS 05 May 11:05:28 11:06:19 11° 299° (WNW) 11:07:12 437.485
POLYITAN 1 05 May 11:05:57 11:09:56 38° 71° (ENE) 11:13:56 437.675
POPSAT HIP 1 05 May 11:07:47 11:11:46 39° 71° (ENE) 11:15:47 437.405
QB50P1 05 May 11:10:39 11:14:43 42° 71° (ENE) 11:18:46 145.935-145.965
UWE-3 05 May 11:12:47 11:16:15 25° 293° (WNW) 11:19:39 435.000/436.395/437.385
TIGRISAT 05 May 11:15:58 11:20:15 36° 263° (W) 11:24:29 435.000
CUBEBUG 2 05 May 11:27:17 11:29:28 14° 298° (WNW) 11:31:38 437.445
50 SAT 05 May 11:28:07 11:29:05 11° 91° (E) 11:30:03 437.505
BUGSAT 1 05 May 11:29:54 11:33:39 31° 69° (ENE) 11:37:26 437.445
ESTCUBE 1 05 May 11:30:42 11:33:53 18° 92° (E) 11:37:02 437.505/2401.250
CUBEBUG 1 05 May 11:30:47 11:32:43 13° 90° (E) 11:34:38 437.445
GONETS M04 05 May 11:34:32 11:43:16 65° 78° (ENE) 11:51:53
ZACube-1 05 May 11:37:24 11:40:30 20° 294° (WNW) 11:43:34 437.345
Cosmos 2499 05 May 11:39:07 11:46:23 40° 73° (ENE) 11:54:06 435.465 / 435.565
ANTELSAT 05 May 11:42:43 11:46:04 20° 267° (W) 11:49:23 437.575/2403.000
NANOSAT C BR1 05 May 11:43:38 11:47:55 86° 261° (W) 11:52:13 145.865
JAS-2 05 May 11:48:09 11:52:51 22° 56° (ENE) 11:57:57 435.910
PHONESAT 2.4 05 May 11:50:40 11:53:44 52° 183° (S) 11:56:50 2401.200-2431.200
DX 1 05 May 11:51:47 11:54:52 18° 93° (E) 11:57:56 434.975-435.025
UKube-1 05 May 11:53:23 11:56:01 15° 92° (E) 11:58:36 .
ISS 05 May 12:01:30 12:04:34 37° 24° (NNE) 12:07:38 145.825
VELOX 1 05 May 12:04:03 12:07:56 28° 96° (E) 12:11:47 145.980
HO-68 05 May 12:08:21 12:09:17 10° 315° (NW) 12:10:13 435.675
HUMSAT D 05 May 12:15:51 12:19:20 27° 291° (WNW) 12:22:47 437.325/437.525
SPROUT 05 May 12:18:01 12:20:34 15° 91° (E) 12:23:05 437.525
DELFI C3 05 May 12:21:44 12:23:05 11° 298° (WNW) 12:24:24 145.870
Oscar 19 05 May 12:24:44 12:28:32 21° 62° (ENE) 12:32:22 437.125/150
AO-85 05 May 12:25:35 12:31:00 67° 121° (ESE) 12:36:23 145.980
DUCHIFAT 1 05 May 12:35:38 12:39:10 25° 265° (W) 12:42:43 145.980
AISAT 05 May 12:36:11 12:40:39 66° 102° (ESE) 12:45:04 437.250
QB50P2 05 May 12:40:32 12:43:41 20° 267° (W) 12:46:51 145.880/145.840
POLYITAN 1 05 May 12:42:46 12:45:53 19° 267° (W) 12:49:01 437.675
AIST 1 05 May 12:42:57 12:46:07 20° 273° (W) 12:49:16
Gurwin Techsat 1B 05 May 12:43:27 12:46:03 14° 58° (ENE) 12:48:40 435.225
POPSAT HIP 1 05 May 12:44:37 12:47:43 19° 267° (W) 12:50:48 437.405
QB50P1 05 May 12:47:47 12:50:41 18° 268° (W) 12:53:35 145.935-145.965
50 SAT 05 May 12:59:36 13:03:10 50° 286° (WNW) 13:06:43 437.505
CUBEBUG 1 05 May 13:05:01 13:09:26 64° 287° (WNW) 13:13:48 437.445
BUGSAT 1 05 May 13:05:35 13:09:02 24° 265° (W) 13:12:31 437.445
ESTCUBE 1 05 May 13:06:34 13:10:53 45° 289° (WNW) 13:15:13 437.505/2401.250
DX 1 05 May 13:27:05 13:31:15 42° 290° (WNW) 13:35:23 434.975-435.025
PHONESAT 2.4 05 May 13:27:35 13:30:18 26° 200° (SSW) 13:33:01 2401.200-2431.200
UKube-1 05 May 13:28:07 13:32:20 50° 288° (WNW) 13:36:31 .
JAS-2 05 May 13:30:59 13:37:03 73° 258° (WSW) 13:44:03 435.910
Cosmos 2499 05 May 13:32:13 13:39:30 44° 271° (W) 13:47:17 435.465 / 435.565
GONETS M04 05 May 13:32:23 13:39:22 28° 279° (W) 13:46:19
ISS 05 May 13:38:01 13:41:00 33° 222° (SW) 13:43:59 145.825
VELOX 1 05 May 13:40:30 13:44:21 29° 292° (WNW) 13:48:10 145.980
O/OREOS (USA 219) 05 May 13:43:20 13:46:31 19° 101° (E) 13:49:43 437.305
ITAMSAT 1 05 May 13:49:26 13:53:22 22° 63° (ENE) 13:57:19 435.822/435.867
SPROUT 05 May 13:52:38 13:56:48 49° 288° (WNW) 14:00:55 437.525
SO-50 05 May 13:55:37 13:58:40 17° 36° (NE) 14:01:39 436.795
ITUPSAT 1 05 May 13:59:42 14:00:40 11° 88° (E) 14:01:37 437.325
Oscar 19 05 May 14:02:25 14:07:28 54° 260° (W) 14:12:34 437.125/150
SWISSCUBE 05 May 14:06:03 14:08:41 15° 91° (E) 14:11:19 437.505
AO-85 05 May 14:07:32 14:11:59 25° 319° (NW) 14:16:22 145.980
AO-7 05 May 14:09:01 14:15:32 27° 53° (NE) 14:22:02 29.400- 29.500
AISAT 05 May 14:14:17 14:16:35 14° 299° (WNW) 14:18:52 437.250
TISAT 1 05 May 14:15:42 14:19:56 88° 97° (E) 14:24:08 437.305
PCSat 05 May 14:16:35 14:20:05 18° 105° (ESE) 14:23:36 145.827
Gurwin Techsat 1B 05 May 14:19:55 14:25:14 89° 252° (WSW) 14:30:35 435.225
CUSAT 1 05 May 14:31:48 14:34:53 24° 85° (E) 14:38:41 437.405
BEESAT 05 May 14:37:47 14:41:50 27° 95° (E) 14:45:53 436.000
O/OREOS (USA 219) 05 May 15:21:09 15:25:34 46° 298° (WNW) 15:30:00 437.305
JAS-2 05 May 15:22:10 15:23:35 11° 279° (W) 15:25:01 435.910
ITAMSAT 1 05 May 15:27:30 15:32:30 50° 260° (W) 15:37:32 435.822/435.867
ITUPSAT 1 05 May 15:34:18 15:39:06 84° 285° (WNW) 15:43:53 437.325
SO-50 05 May 15:35:07 15:39:53 88° 49° (NE) 15:44:28 436.795
DANDE 05 May 15:41:14 15:44:10 47° 94° (E) 15:47:56 436.750
SWISSCUBE 05 May 15:42:11 15:46:54 63° 287° (WNW) 15:51:36 437.505
KKS-1 05 May 15:54:53 15:58:21 22° 94° (E) 16:01:46 437.445
PCSat 05 May 15:57:30 16:02:54 68° 303° (WNW) 16:08:20 145.827
AO-7 05 May 15:59:12 16:07:29 79° 253° (WSW) 16:15:50 29.400- 29.500
STARS 05 May 16:04:18 16:06:37 14° 91° (E) 16:08:53 437.465
Gurwin Techsat 1B 05 May 16:04:27 16:05:55 11° 273° (W) 16:07:24 435.225
CUSAT 1 05 May 16:13:30 16:16:51 27° 294° (WNW) 16:21:03 437.405
BEESAT 05 May 16:15:23 16:19:39 33° 292° (WNW) 16:23:54 436.000
MOZHAYETS 4 05 May 16:19:23 16:23:16 27° 95° (E) 16:27:07
HORYU 2 05 May 16:20:30 16:24:41 41° 70° (ENE) 16:28:52 437.375
